Location: Kellogg
(38.0159°N, 90.0546°W)
Time: 06:38:45
(UTC+00:00)

Vanguard 1 Rocket - Pass Details

Date: 16 September 2024
Orbit: 650 x 4218 km, 34.3° (Epoch: 05 October)

Event Time Altitude Azimuth Distance (km) Brightness Sun altitude
Rises 13:48:28 0° 280° (W) 7,049 11.3 23.5°
Reaches altitude 10° 13:52:35 10° 279° (W) 6,381 11.2 24.3°
Maximum altitude 14:15:32 68° 203° (SSW) 4,406 11.3 28.6°
Drops below altitude 10° 14:39:48 10° 126° (SE) 6,669 13.2 32.9°
Sets 14:44:15 0° 124° (SE) 7,360 13.1 33.7°
